QPF
0.01 0.01 0.00 0.00 0.00 0.00 0.01 0.01 0.01 0.01 0.01 0.01 0.02 0.02 0.02 0.02 0.01 0.02 0.02 0.01 0.01 0.02 0.02 0.02 0.01 0.01 0.01 0.01 0.01 0.02 0.03 0.03 0.04 0.06 0.07 0.07 0.07 0.06 0.05 0.06 0.08 0.06 0.06 0.07
0.01 0.00 0.00 0.00 0.01 0.01 0.01 0.01 0.01 0.01 0.00 0.01 0.02 0.02 0.01 0.02 0.02 0.01 0.01 0.01 0.01 0.01 0.02 0.02 0.01 0.01 0.01 0.01 0.01 0.02 0.02 0.02 0.03 0.04 0.06 0.07 0.05 0.05 0.04 0.04 0.05 0.06 0.06 0.06
0.00 0.00 0.00 0.00 0.01 0.01 0.01 0.01 0.02 0.01 0.00 0.01 0.01 0.02 0.01 0.01 0.01 0.01 0.01 0.00 0.01 0.01 0.01 0.02 0.02 0.01 0.01 0.01 0.02 0.02 0.03 0.02 0.03 0.04 0.06 0.07 0.05 0.04 0.04 0.04 0.03 0.04 0.05 0.06
0.00 0.00 0.00 0.00 0.00 0.00 0.00 0.01 0.01 0.01 0.01 0.02 0.03 0.04 0.02 0.01 0.01 0.01 0.01 0.01 0.01 0.01 0.01 0.02 0.02 0.01 0.01 0.01 0.01 0.02 0.02 0.02 0.02 0.02 0.04 0.07 0.09 0.08 0.06 0.04 0.03 0.03 0.03 0.04
0.01 0.00 0.00 0.00 0.00 0.00 0.00 0.00 0.00 0.01 0.01 0.01 0.02 0.05 0.06 0.04 0.03 0.02 0.01 0.01 0.01 0.01 0.01 0.01 0.01 0.01 0.01 0.01 0.01 0.02 0.01 0.01 0.01 0.01 0.03 0.05 0.09 0.12 0.11 0.08 0.06 0.04 0.03 0.03
0.00 0.00 0.00 0.00 0.00 0.00 0.00 0.00 0.00 0.01 0.01 0.02 0.01 0.02 0.04 0.06 0.06 0.04 0.02 0.01 0.01 0.01 0.01 0.02 0.02 0.01 0.01 0.01 0.02 0.02 0.01 0.01 0.01 0.01 0.01 0.04 0.06 0.08 0.09 0.08 0.07 0.05 0.04 0.04
0.00 0.00 0.00 0.01 0.01 0.00 0.00 0.00 0.01 0.01 0.02 0.02 0.01 0.01 0.04 0.06 0.05 0.05 0.05 0.03 0.01 0.01 0.01 0.01 0.02 0.01 0.02 0.02 0.02 0.02 0.02 0.01 0.01 0.01 0.01 0.03 0.04 0.05 0.07 0.08 0.07 0.05 0.05 0.04
0.00 0.00 0.00 0.00 0.00 0.00 0.00 0.00 0.01 0.01 0.01 0.01 0.00 0.01 0.03 0.05 0.04 0.04 0.03 0.02 0.01 0.01 0.01 0.01 0.01 0.02 0.02 0.02 0.02 0.02 0.02 0.01 0.01 0.01 0.01 0.02 0.03 0.04 0.04 0.06 0.07 0.06 0.06 0.04
0.01 0.01 0.00 0.00 0.00 0.00 0.00 0.00 0.00 0.01 0.01 0.01 0.01 0.01 0.02 0.03 0.03 0.03 0.02 0.02 0.02 0.02 0.02 0.01 0.01 0.02 0.03 0.03 0.02 0.02 0.02 0.02 0.01 0.02 0.02 0.02 0.03 0.04 0.05 0.06 0.06 0.06 0.06 0.05
0.02 0.02 0.01 0.00 0.00 0.00 0.00 0.00 0.00 0.01 0.01 0.01 0.01 0.00 0.01 0.02 0.03 0.03 0.03 0.03 0.03 0.02 0.02 0.02 0.02 0.03 0.03 0.04 0.03 0.03 0.03 0.02 0.02 0.02 0.02 0.03 0.03 0.04 0.05 0.06 0.05 0.05 0.05 0.06
0.01 0.02 0.01 0.01 0.01 0.01 0.00 0.00 0.01 0.01 0.01 0.01 0.01 0.01 0.01 0.02 0.03 0.03 0.02 0.03 0.03 0.02 0.02 0.03 0.03 0.03 0.03 0.04 0.05 0.05 0.05 0.04 0.04 0.04 0.03 0.03 0.03 0.04 0.04 0.05 0.05 0.04 0.04 0.05
0.01 0.02 0.02 0.00 0.00 0.01 0.00 0.00 0.00 0.01 0.01 0.01 0.01 0.01 0.01 0.01 0.02 0.02 0.02 0.01 0.01 0.01 0.01 0.02 0.02 0.02 0.03 0.04 0.04 0.05 0.05 0.04 0.05 0.05 0.05 0.05 0.05 0.05 0.05 0.06 0.05 0.04 0.04 0.04
0.02 0.03 0.03 0.02 0.01 0.01 0.01 0.00 0.01 0.01 0.01 0.01 0.01 0.01 0.01 0.01 0.01 0.01 0.01 0.01 0.01 0.00 0.01 0.01 0.02 0.02 0.03 0.04 0.04 0.05 0.05 0.04 0.04 0.05 0.06 0.06 0.06 0.06 0.06 0.06 0.05 0.04 0.04 0.04
0.03 0.03 0.02 0.02 0.02 0.02 0.01 0.00 0.00 0.01 0.01 0.01 0.01 0.01 0.01 0.01 0.01 0.01 0.01 0.00 0.00 0.01 0.01 0.01 0.01 0.02 0.03 0.03 0.04 0.05 0.05 0.04 0.03 0.02 0.02 0.03 0.04 0.05 0.05 0.05 0.04 0.03 0.03 0.03
0.03 0.03 0.01 0.01 0.01 0.01 0.01 0.01 0.00 0.00 0.00 0.00 0.00 0.01 0.03 0.03 0.02 0.01 0.01 0.01 0.00 0.00 0.01 0.01 0.01 0.02 0.02 0.03 0.03 0.04 0.04 0.04 0.03 0.03 0.03 0.03 0.04 0.05 0.05 0.04 0.04 0.03 0.04 0.03
0.03 0.02 0.02 0.02 0.01 0.01 0.01 0.01 0.00 0.00 0.00 0.00 0.00 0.01 0.02 0.04 0.03 0.02 0.02 0.01 0.01 0.01 0.01 0.01 0.01 0.01 0.02 0.02 0.03 0.04 0.04 0.04 0.03 0.03 0.03 0.04 0.06 0.06 0.05 0.04 0.04 0.04 0.04 0.03
0.03 0.02 0.02 0.02 0.01 0.01 0.01 0.01 0.01 0.01 0.00 0.00 0.00 0.01 0.01 0.04 0.03 0.03 0.03 0.02 0.02 0.01 0.01 0.01 0.01 0.01 0.02 0.02 0.03 0.03 0.04 0.03 0.03 0.04 0.04 0.04 0.05 0.06 0.06 0.05 0.05 0.06 0.06 0.05
0.02 0.02 0.02 0.02 0.01 0.01 0.02 0.01 0.01 0.01 0.01 0.01 0.01 0.01 0.01 0.03 0.04 0.02 0.02 0.03 0.03 0.02 0.01 0.01 0.01 0.01 0.01 0.01 0.02 0.03 0.03 0.03 0.03 0.03 0.03 0.04 0.05 0.06 0.06 0.05 0.06 0.08 0.08 0.07
0.01 0.02 0.02 0.02 0.01 0.01 0.01 0.01 0.01 0.01 0.01 0.01 0.01 0.01 0.01 0.02 0.03 0.02 0.01 0.02 0.02 0.02 0.01 0.01 0.01 0.01 0.01 0.01 0.01 0.02 0.02 0.02 0.03 0.03 0.04 0.04 0.05 0.05 0.05 0.05 0.06 0.08 0.08 0.07
0.01 0.01 0.02 0.02 0.02 0.01 0.01 0.01 0.01 0.02 0.02 0.01 0.01 0.01 0.01 0.01 0.02 0.01 0.01 0.01 0.01 0.02 0.02 0.02 0.01 0.01 0.01 0.01 0.01 0.01 0.01 0.02 0.02 0.03 0.03 0.04 0.04 0.05 0.05 0.06 0.07 0.07 0.06 0.05
0.01 0.02 0.02 0.02 0.02 0.01 0.01 0.01 0.01 0.02 0.02 0.01 0.01 0.01 0.02 0.01 0.01 0.01 0.01 0.01 0.02 0.02 0.02 0.02 0.02 0.02 0.01 0.01 0.01 0.01 0.01 0.02 0.02 0.02 0.03 0.03 0.04 0.04 0.06 0.07 0.07 0.06 0.05 0.04
0.01 0.01 0.01 0.01 0.02 0.01 0.00 0.01 0.01 0.01 0.01 0.01 0.02 0.01 0.02 0.01 0.01 0.01 0.01 0.01 0.01 0.01 0.01 0.02 0.02 0.02 0.02 0.01 0.01 0.01 0.01 0.02 0.02 0.02 0.02 0.03 0.03 0.04 0.05 0.07 0.06 0.05 0.04 0.04
0.00 0.00 0.00 0.01 0.01 0.01 0.01 0.01 0.01 0.02 0.02 0.01 0.02 0.02 0.02 0.01 0.01 0.01 0.01 0.01 0.01 0.01 0.01 0.01 0.01 0.02 0.02 0.03 0.02 0.02 0.02 0.02 0.02 0.02 0.02 0.03 0.03 0.04 0.05 0.05 0.04 0.04 0.03 0.03
0.01 0.00 0.01 0.01 0.01 0.01 0.01 0.01 0.02 0.03 0.03 0.02 0.02 0.02 0.02 0.02 0.01 0.01 0.01 0.00 0.00 0.00 0.00 0.01 0.01 0.01 0.01 0.02 0.02 0.03 0.03 0.03 0.02 0.02 0.03 0.03 0.03 0.03 0.03 0.03 0.02 0.02 0.02 0.02
0.01 0.01 0.01 0.01 0.01 0.01 0.01 0.02 0.02 0.02 0.02 0.02 0.02 0.02 0.02 0.01 0.01 0.01 0.00 0.00 0.00 0.00 0.01 0.01 0.01 0.01 0.01 0.01 0.02 0.03 0.03 0.03 0.02 0.02 0.02 0.02 0.02 0.02 0.02 0.02 0.02 0.02 0.02 0.02
0.01 0.01 0.01 0.01 0.01 0.01 0.01 0.01 0.02 0.02 0.01 0.01 0.01 0.01 0.01 0.01 0.01 0.00 0.00 0.00 0.00 0.01 0.01 0.01 0.01 0.01 0.02 0.01 0.01 0.01 0.01 0.02 0.02 0.02 0.02 0.01 0.01 0.01 0.01 0.01 0.02 0.02 0.02 0.02
MSLP
1014.81 1014.98 1015.14 1015.30 1015.47 1015.65 1015.81 1015.94 1015.99 1015.91 1015.68 1015.29 1014.76 1014.13 1013.48 1012.88 1012.40 1012.08 1011.92 1011.91 1011.99 1012.10 1012.17 1012.15 1012.01 1011.76 1011.43 1011.09 1010.80 1010.64 1010.67 1010.90 1011.32 1011.89 1012.56 1013.24 1013.87 1014.41 1014.81 1015.08 1015.24 1015.33 1015.38 1015.45
1015.67 1015.77 1015.87 1016.00 1016.18 1016.43 1016.72 1017.00 1017.21 1017.25 1017.09 1016.70 1016.07 1015.28 1014.39 1013.53 1012.78 1012.23 1011.90 1011.80 1011.85 1012.00 1012.14 1012.19 1012.12 1011.90 1011.58 1011.21 1010.89 1010.68 1010.67 1010.88 1011.31 1011.90 1012.59 1013.31 1013.97 1014.52 1014.92 1015.17 1015.32 1015.39 1015.44 1015.52
1016.55 1016.57 1016.60 1016.70 1016.90 1017.23 1017.65 1018.09 1018.45 1018.62 1018.53 1018.12 1017.39 1016.41 1015.28 1014.14 1013.11 1012.32 1011.81 1011.59 1011.61 1011.78 1011.98 1012.13 1012.13 1011.98 1011.70 1011.34 1011.00 1010.77 1010.73 1010.92 1011.33 1011.93 1012.63 1013.36 1014.04 1014.59 1014.99 1015.24 1015.38 1015.45 1015.51 1015.59
1017.45 1017.39 1017.35 1017.42 1017.66 1018.06 1018.61 1019.20 1019.71 1020.00 1019.96 1019.53 1018.69 1017.53 1016.17 1014.75 1013.46 1012.43 1011.74 1011.41 1011.38 1011.57 1011.83 1012.06 1012.16 1012.09 1011.85 1011.52 1011.17 1010.92 1010.84 1010.99 1011.37 1011.95 1012.64 1013.36 1014.04 1014.59 1014.99 1015.25 1015.39 1015.48 1015.55 1015.65
1018.36 1018.23 1018.14 1018.20 1018.46 1018.95 1019.61 1020.33 1020.96 1021.35 1021.35 1020.89 1019.96 1018.64 1017.05 1015.40 1013.87 1012.63 1011.78 1011.34 1011.27 1011.47 1011.79 1012.10 1012.28 1012.28 1012.09 1011.78 1011.42 1011.13 1011.01 1011.10 1011.42 1011.94 1012.59 1013.28 1013.94 1014.49 1014.90 1015.17 1015.34 1015.45 1015.55 1015.68
1019.27 1019.08 1018.95 1019.01 1019.30 1019.86 1020.61 1021.44 1022.17 1022.61 1022.64 1022.15 1021.13 1019.68 1017.93 1016.08 1014.37 1012.96 1011.98 1011.45 1011.34 1011.54 1011.91 1012.27 1012.52 1012.57 1012.41 1012.11 1011.73 1011.40 1011.20 1011.21 1011.45 1011.89 1012.48 1013.12 1013.75 1014.30 1014.72 1015.03 1015.23 1015.38 1015.52 1015.68
1020.16 1019.92 1019.78 1019.83 1020.16 1020.76 1021.57 1022.46 1023.24 1023.72 1023.74 1023.22 1022.14 1020.59 1018.72 1016.76 1014.92 1013.40 1012.33 1011.74 1011.60 1011.80 1012.17 1012.57 1012.84 1012.92 1012.78 1012.46 1012.05 1011.66 1011.39 1011.31 1011.45 1011.80 1012.31 1012.90 1013.50 1014.05 1014.49 1014.83 1015.09 1015.29 1015.48 1015.67
1021.00 1020.73 1020.57 1020.63 1020.97 1021.59 1022.42 1023.32 1024.10 1024.57 1024.57 1024.01 1022.88 1021.28 1019.36 1017.34 1015.45 1013.89 1012.78 1012.15 1011.99 1012.16 1012.53 1012.92 1013.19 1013.26 1013.11 1012.77 1012.31 1011.86 1011.52 1011.35 1011.41 1011.68 1012.12 1012.67 1013.25 1013.79 1014.26 1014.65 1014.95 1015.21 1015.44 1015.66
1021.74 1021.46 1021.30 1021.36 1021.69 1022.30 1023.09 1023.95 1024.67 1025.08 1025.03 1024.43 1023.28 1021.67 1019.76 1017.76 1015.89 1014.34 1013.23 1012.60 1012.41 1012.56 1012.89 1013.24 1013.48 1013.51 1013.32 1012.95 1012.46 1011.96 1011.57 1011.35 1011.35 1011.56 1011.96 1012.47 1013.04 1013.60 1014.09 1014.52 1014.87 1015.17 1015.43 1015.68
1022.36 1022.09 1021.93 1021.98 1022.28 1022.83 1023.54 1024.29 1024.90 1025.21 1025.07 1024.43 1023.27 1021.69 1019.84 1017.92 1016.14 1014.66 1013.59 1012.98 1012.78 1012.88 1013.16 1013.44 1013.61 1013.60 1013.37 1012.96 1012.45 1011.94 1011.53 1011.30 1011.28 1011.47 1011.85 1012.37 1012.94 1013.51 1014.03 1014.49 1014.87 1015.19 1015.47 1015.71
1022.83 1022.59 1022.45 1022.47 1022.72 1023.16 1023.74 1024.33 1024.77 1024.93 1024.69 1023.99 1022.84 1021.33 1019.59 1017.80 1016.15 1014.79 1013.81 1013.23 1013.02 1013.08 1013.28 1013.48 1013.57 1013.49 1013.23 1012.80 1012.30 1011.81 1011.43 1011.22 1011.23 1011.45 1011.85 1012.37 1012.96 1013.55 1014.09 1014.57 1014.96 1015.28 1015.55 1015.77
1023.17 1022.97 1022.84 1022.84 1023.01 1023.32 1023.71 1024.10 1024.33 1024.31 1023.94 1023.18 1022.05 1020.62 1019.02 1017.41 1015.93 1014.72 1013.85 1013.33 1013.11 1013.12 1013.25 1013.36 1013.37 1013.23 1012.93 1012.51 1012.05 1011.61 1011.29 1011.16 1011.23 1011.50 1011.94 1012.50 1013.11 1013.71 1014.26 1014.74 1015.12 1015.43 1015.66 1015.85
1023.37 1023.23 1023.12 1023.09 1023.16 1023.32 1023.51 1023.65 1023.65 1023.43 1022.92 1022.09 1020.97 1019.65 1018.21 1016.79 1015.52 1014.48 1013.73 1013.28 1013.08 1013.05 1013.09 1013.12 1013.05 1012.86 1012.54 1012.15 1011.73 1011.38 1011.16 1011.11 1011.27 1011.61 1012.11 1012.70 1013.33 1013.94 1014.49 1014.95 1015.32 1015.59 1015.79 1015.94
1023.45 1023.38 1023.30 1023.24 1023.20 1023.18 1023.15 1023.05 1022.80 1022.37 1021.70 1020.81 1019.73 1018.51 1017.24 1016.03 1014.97 1014.12 1013.51 1013.13 1012.95 1012.89 1012.86 1012.81 1012.68 1012.45 1012.13 1011.77 1011.42 1011.15 1011.03 1011.09 1011.33 1011.74 1012.29 1012.91 1013.56 1014.17 1014.71 1015.15 1015.49 1015.74 1015.92 1016.03
1023.40 1023.40 1023.35 1023.25 1023.11 1022.92 1022.67 1022.32 1021.83 1021.20 1020.41 1019.46 1018.41 1017.30 1016.21 1015.21 1014.36 1013.69 1013.22 1012.93 1012.77 1012.69 1012.61 1012.50 1012.31 1012.05 1011.73 1011.40 1011.12 1010.94 1010.91 1011.05 1011.37 1011.84 1012.42 1013.06 1013.71 1014.32 1014.85 1015.29 1015.62 1015.86 1016.03 1016.13
1023.20 1023.27 1023.23 1023.09 1022.85 1022.50 1022.05 1021.48 1020.79 1019.98 1019.08 1018.11 1017.11 1016.12 1015.20 1014.40 1013.75 1013.26 1012.92 1012.71 1012.58 1012.48 1012.36 1012.20 1011.97 1011.68 1011.36 1011.07 1010.84 1010.72 1010.75 1010.96 1011.32 1011.82 1012.42 1013.07 1013.72 1014.33 1014.87 1015.31 1015.66 1015.93 1016.11 1016.24
1022.84 1022.94 1022.90 1022.71 1022.37 1021.88 1021.26 1020.51 1019.66 1018.74 1017.77 1016.81 1015.87 1015.02 1014.27 1013.66 1013.19 1012.85 1012.63 1012.49 1012.38 1012.27 1012.12 1011.91 1011.64 1011.33 1011.01 1010.73 1010.53 1010.45 1010.53 1010.76 1011.15 1011.65 1012.25 1012.90 1013.55 1014.17 1014.73 1015.21 1015.61 1015.93 1016.18 1016.37
1022.25 1022.35 1022.28 1022.02 1021.59 1020.99 1020.25 1019.38 1018.44 1017.46 1016.50 1015.58 1014.75 1014.03 1013.45 1013.01 1012.70 1012.49 1012.37 1012.27 1012.17 1012.04 1011.85 1011.60 1011.29 1010.96 1010.63 1010.36 1010.17 1010.11 1010.19 1010.43 1010.81 1011.31 1011.90 1012.54 1013.20 1013.84 1014.45 1015.00 1015.48 1015.89 1016.23 1016.51
1021.41 1021.45 1021.31 1020.98 1020.47 1019.80 1018.98 1018.07 1017.11 1016.16 1015.25 1014.43 1013.74 1013.17 1012.76 1012.47 1012.29 1012.18 1012.12 1012.05 1011.94 1011.77 1011.54 1011.24 1010.89 1010.53 1010.19 1009.91 1009.72 1009.65 1009.73 1009.96 1010.32 1010.80 1011.38 1012.02 1012.69 1013.38 1014.05 1014.69 1015.28 1015.81 1016.26 1016.64
1020.29 1020.22 1019.99 1019.58 1019.01 1018.29 1017.47 1016.59 1015.69 1014.83 1014.05 1013.38 1012.85 1012.45 1012.19 1012.04 1011.96 1011.92 1011.88 1011.80 1011.66 1011.45 1011.16 1010.81 1010.42 1010.03 1009.67 1009.38 1009.18 1009.11 1009.18 1009.39 1009.73 1010.19 1010.76 1011.41 1012.11 1012.85 1013.60 1014.34 1015.04 1015.69 1016.25 1016.73
1018.90 1018.69 1018.35 1017.86 1017.25 1016.54 1015.77 1014.97 1014.21 1013.51 1012.91 1012.44 1012.09 1011.87 1011.75 1011.71 1011.70 1011.69 1011.64 1011.53 1011.33 1011.06 1010.71 1010.30 1009.87 1009.45 1009.08 1008.78 1008.59 1008.51 1008.58 1008.78 1009.11 1009.57 1010.13 1010.80 1011.53 1012.32 1013.14 1013.97 1014.77 1015.53 1016.20 1016.77
1017.29 1016.93 1016.47 1015.93 1015.31 1014.65 1013.97 1013.33 1012.75 1012.26 1011.88 1011.62 1011.47 1011.42 1011.43 1011.48 1011.51 1011.49 1011.41 1011.23 1010.97 1010.61 1010.19 1009.73 1009.27 1008.83 1008.45 1008.16 1007.98 1007.93 1008.00 1008.21 1008.55 1009.01 1009.58 1010.25 1011.02 1011.85 1012.73 1013.62 1014.50 1015.33 1016.07 1016.71
1015.57 1015.06 1014.51 1013.92 1013.33 1012.75 1012.22 1011.77 1011.40 1011.15 1011.01 1010.97 1011.01 1011.11 1011.23 1011.32 1011.36 1011.32 1011.17 1010.92 1010.57 1010.14 1009.65 1009.14 1008.65 1008.21 1007.85 1007.58 1007.44 1007.41 1007.52 1007.75 1008.11 1008.58 1009.16 1009.85 1010.62 1011.47 1012.38 1013.30 1014.22 1015.09 1015.88 1016.55
1013.85 1013.22 1012.61 1012.02 1011.49 1011.03 1010.66 1010.41 1010.28 1010.26 1010.35 1010.51 1010.71 1010.93 1011.12 1011.24 1011.26 1011.16 1010.94 1010.61 1010.17 1009.66 1009.12 1008.57 1008.07 1007.65 1007.31 1007.09 1007.00 1007.02 1007.18 1007.45 1007.84 1008.33 1008.92 1009.61 1010.38 1011.22 1012.12 1013.03 1013.95 1014.82 1015.61 1016.30
1012.26 1011.57 1010.94 1010.39 1009.94 1009.62 1009.43 1009.39 1009.47 1009.66 1009.93 1010.25 1010.58 1010.88 1011.10 1011.21 1011.19 1011.03 1010.73 1010.30 1009.79 1009.22 1008.64 1008.08 1007.58 1007.18 1006.89 1006.73 1006.70 1006.79 1007.01 1007.33 1007.75 1008.26 1008.86 1009.53 1010.28 1011.09 1011.94 1012.82 1013.69 1014.53 1015.30 1015.98
1010.95 1010.24 1009.64 1009.16 1008.83 1008.65 1008.63 1008.76 1009.02 1009.37 1009.79 1010.21 1010.61 1010.94 1011.16 1011.23 1011.15 1010.92 1010.54 1010.04 1009.47 1008.85 1008.25 1007.69 1007.21 1006.85 1006.62 1006.53 1006.56 1006.72 1007.00 1007.37 1007.83 1008.36 1008.95 1009.61 1010.32 1011.07 1011.86 1012.67 1013.48 1014.26 1014.99 1015.65
Thickness
5561 5551 5547 5551 5553 5556 5555 5551 5549 5554 5559 5556 5551 5551 5555 5556 5555 5552 5551 5552 5553 5555 5558 5559 5561 5563 5565 5567 5569 5572 5574 5577 5579 5580 5582 5583 5585 5588 5590 5593 5594 5595 5596 5598
5545 5544 5553 5554 5553 5552 5548 5543 5542 5546 5552 5548 5540 5542 5548 5549 5549 5549 5548 5546 5546 5547 5548 5550 5551 5552 5554 5556 5558 5561 5563 5566 5568 5570 5572 5573 5574 5576 5579 5581 5583 5585 5586 5587
5541 5547 5552 5550 5546 5544 5542 5538 5538 5538 5541 5539 5533 5535 5540 5542 5543 5543 5542 5541 5540 5540 5540 5541 5541 5542 5543 5545 5548 5551 5553 5555 5558 5560 5561 5562 5563 5565 5567 5569 5571 5573 5575 5576
5534 5541 5545 5543 5541 5540 5535 5541 5539 5535 5525 5520 5524 5518 5531 5530 5533 5535 5532 5529 5529 5531 5532 5532 5533 5533 5534 5535 5537 5539 5542 5544 5547 5549 5550 5550 5551 5553 5554 5556 5558 5561 5563 5564
5528 5534 5536 5535 5537 5537 5533 5535 5531 5527 5519 5510 5512 5506 5518 5521 5523 5526 5524 5523 5523 5523 5524 5524 5525 5525 5525 5526 5526 5527 5529 5532 5535 5537 5538 5538 5539 5540 5542 5544 5546 5549 5551 5553
5522 5528 5529 5531 5532 5532 5528 5522 5517 5506 5500 5496 5506 5499 5510 5511 5517 5520 5519 5517 5516 5515 5515 5515 5515 5515 5515 5515 5515 5516 5518 5520 5522 5524 5526 5526 5527 5528 5529 5531 5533 5536 5538 5541
5511 5518 5521 5523 5521 5520 5515 5503 5491 5489 5479 5488 5503 5499 5505 5513 5514 5514 5512 5510 5508 5506 5505 5505 5505 5505 5505 5505 5505 5505 5507 5509 5511 5512 5512 5513 5515 5517 5518 5520 5521 5523 5525 5528
5496 5500 5510 5511 5512 5508 5506 5500 5489 5488 5480 5485 5494 5494 5502 5507 5506 5506 5505 5502 5499 5496 5495 5496 5495 5495 5495 5495 5495 5496 5497 5498 5499 5500 5501 5502 5503 5505 5507 5509 5511 5512 5514 5516
5486 5492 5502 5503 5505 5505 5500 5492 5493 5478 5470 5472 5479 5486 5495 5501 5497 5497 5496 5493 5490 5488 5488 5487 5486 5486 5485 5485 5486 5486 5487 5488 5489 5490 5491 5492 5493 5494 5496 5499 5500 5501 5503 5505
5482 5478 5488 5492 5496 5496 5496 5490 5476 5470 5471 5473 5477 5480 5488 5489 5489 5487 5485 5482 5481 5480 5479 5478 5477 5477 5476 5476 5476 5477 5478 5478 5479 5480 5481 5482 5483 5484 5486 5487 5489 5491 5492 5494
5474 5466 5471 5478 5479 5482 5484 5481 5475 5463 5464 5466 5468 5483 5491 5486 5485 5479 5476 5474 5472 5470 5469 5469 5468 5467 5466 5467 5467 5467 5468 5468 5469 5470 5470 5471 5472 5473 5475 5477 5479 5480 5482 5484
5462 5453 5452 5463 5473 5476 5476 5475 5467 5463 5457 5455 5459 5473 5482 5478 5476 5473 5469 5467 5465 5463 5461 5459 5458 5457 5457 5457 5457 5457 5457 5457 5459 5459 5460 5460 5461 5463 5465 5466 5468 5469 5471 5473
5454 5445 5447 5456 5461 5462 5463 5466 5462 5456 5449 5442 5449 5467 5472 5467 5466 5465 5460 5457 5455 5453 5452 5451 5449 5448 5447 5447 5447 5447 5447 5447 5448 5449 5449 5450 5451 5452 5454 5455 5457 5459 5461 5462
5451 5437 5442 5452 5455 5451 5451 5454 5454 5450 5443 5442 5451 5460 5464 5459 5455 5455 5452 5448 5445 5445 5445 5443 5441 5439 5438 5438 5438 5438 5437 5438 5438 5438 5438 5439 5441 5442 5444 5445 5446 5448 5450 5451
5440 5433 5431 5438 5444 5443 5443 5446 5446 5443 5444 5444 5451 5450 5456 5450 5446 5444 5442 5441 5439 5437 5436 5435 5432 5430 5429 5429 5429 5429 5429 5429 5429 5429 5429 5430 5431 5432 5434 5435 5435 5437 5438 5439
5426 5423 5422 5429 5440 5437 5437 5439 5440 5439 5440 5440 5443 5445 5445 5439 5436 5434 5432 5432 5431 5429 5428 5426 5425 5423 5422 5421 5421 5420 5420 5420 5420 5420 5420 5420 5421 5422 5423 5424 5425 5426 5426 5427
5415 5414 5416 5423 5425 5428 5429 5434 5433 5430 5429 5433 5436 5440 5432 5428 5428 5426 5425 5423 5423 5422 5420 5418 5416 5414 5414 5413 5413 5412 5412 5411 5411 5410 5409 5410 5411 5411 5412 5413 5414 5414 5415 5415
5410 5406 5401 5406 5412 5417 5434 5430 5430 5426 5423 5424 5428 5426 5424 5422 5419 5417 5415 5414 5413 5413 5412 5410 5408 5406 5405 5405 5405 5405 5404 5403 5402 5401 5401 5401 5401 5401 5402 5402 5402 5403 5403 5403
5409 5404 5396 5395 5398 5409 5425 5425 5418 5418 5419 5419 5418 5418 5416 5413 5412 5409 5408 5406 5405 5404 5403 5402 5400 5398 5397 5397 5397 5397 5396 5395 5394 5393 5393 5392 5392 5392 5392 5392 5392 5392 5392 5392
5397 5395 5391 5388 5398 5409 5427 5420 5414 5414 5415 5416 5412 5410 5408 5406 5406 5406 5403 5400 5398 5397 5396 5395 5393 5391 5390 5389 5388 5388 5387 5386 5386 5385 5384 5384 5383 5383 5382 5382 5382 5382 5382 5383
5389 5386 5386 5385 5387 5400 5410 5408 5410 5409 5414 5411 5406 5404 5400 5398 5398 5396 5394 5392 5390 5389 5388 5387 5386 5384 5382 5381 5381 5380 5379 5379 5378 5378 5377 5376 5375 5375 5374 5373 5373 5373 5373 5373
5388 5383 5380 5380 5385 5401 5402 5399 5402 5402 5401 5400 5398 5395 5392 5390 5389 5387 5385 5384 5382 5381 5381 5380 5378 5377 5375 5374 5373 5372 5371 5371 5371 5370 5369 5368 5367 5367 5367 5365 5365 5364 5364 5364
5384 5387 5386 5388 5396 5397 5393 5395 5396 5393 5392 5392 5390 5387 5385 5382 5381 5381 5378 5375 5374 5373 5372 5372 5370 5369 5367 5366 5365 5363 5363 5363 5363 5362 5361 5360 5360 5359 5359 5358 5357 5357 5356 5357
5382 5380 5379 5378 5385 5389 5388 5387 5387 5386 5386 5386 5383 5380 5378 5376 5374 5372 5370 5368 5366 5365 5364 5363 5362 5361 5359 5358 5357 5356 5355 5355 5355 5355 5354 5354 5353 5352 5352 5352 5352 5351 5350 5350
5379 5373 5373 5374 5380 5382 5385 5383 5383 5381 5379 5376 5375 5373 5372 5369 5367 5365 5362 5360 5358 5358 5356 5355 5353 5352 5351 5350 5349 5349 5348 5348 5348 5347 5347 5347 5346 5346 5345 5345 5344 5345 5345 5345
5371 5371 5374 5382 5382 5378 5381 5380 5378 5374 5372 5369 5367 5365 5363 5362 5360 5358 5355 5353 5351 5349 5348 5347 5345 5344 5343 5342 5342 5342 5342 5341 5341 5341 5341 5340 5340 5339 5339 5338 5338 5338 5339 5340